North Padre Island, TX

3:04 PM CDT on April 24, 2017 (GMT -0500)
North Padre Island

Weather History for KOPM - February, 2013

Change the Weather History Date:

Sunday, February 24, 2013

  Actual Average (KHRL) Record (KHRL)
Temperature  
Mean Temperature 66 °F -  
Max Temperature 69 °F 73 °F 94 °F (2017)
Min Temperature 64 °F 52 °F 31 °F (1934)
Cooling Degree Days 2    
Growing Degree Days 16 (Base 50)    
Moisture  
Dew Point 64 °F    
Average Humidity 89    
Maximum Humidity 100    
Minimum Humidity 78    
Precipitation  
Precipitation 0.00 in - - ()
Sea Level Pressure  
Sea Level Pressure 29.76 in    
Wind  
Wind Speed 12 mph (East)    
Max Wind Speed 16 mph    
Max Gust Speed -    
Visibility 5 miles    
Events Fog    
Averages and records for this station are not official NWS values.
T = Trace of Precipitation, MM = Missing Value Source: NWS Daily Summary

Daily Weather History Graph

Daily Weather History Graph

Search for Another Location

Airport or City:

Trip Planner

Search our weather history database for the weather conditions in past years. The results will help you decide how hot, cold, wet, or windy it might be!

Date:

Astronomy

Feb. 24, 2013 Rise Set
Actual Time 6:56 AM CST 6:26 PM CST
Civil Twilight 6:32 AM CST 6:49 PM CST
Nautical Twilight 6:05 AM CST 7:16 PM CST
Astronomical Twilight 5:38 AM CST 7:43 PM CST
Moon 5:38 PM CST 5:51 AM CST
Length of Visible Light 12h 16m
Length of Day
11h 29m
Waxing Gibbous, 99% of the Moon is Illuminated
Feb 24
Waxing Gibbous
Feb 25
Full
Mar 4
Last Quarter
Mar 11
New
Mar 19
First Quarter

Hourly Weather History & Observations

Time (CST) Temp. Dew Point Humidity Pressure Visibility Wind Dir Wind Speed Gust Speed Precip Events Conditions
12:35 AM 64.4 °F 59.0 °F 83% 29.91 in 10.0 mi NE 9.2 mph - N/A   Mostly Cloudy
12:55 AM 64.4 °F 59.0 °F 83% 29.90 in 10.0 mi ENE 10.4 mph - N/A   Mostly Cloudy
1:15 AM 66.2 °F 59.0 °F 78% 29.90 in 10.0 mi ENE 11.5 mph - N/A   Overcast
1:35 AM 66.2 °F 59.0 °F 78% 29.89 in 10.0 mi ENE 12.7 mph - N/A   Mostly Cloudy
1:55 AM 66.2 °F 59.0 °F 78% 29.88 in 10.0 mi ENE 11.5 mph - N/A   Scattered Clouds
2:15 AM 66.2 °F 59.0 °F 78% 29.87 in 9.0 mi ENE 13.8 mph - N/A   Scattered Clouds
2:35 AM 66.2 °F 59.0 °F 78% 29.86 in 9.0 mi ENE 13.8 mph - N/A   Scattered Clouds
2:55 AM 66.2 °F 60.8 °F 83% 29.85 in 9.0 mi ENE 12.7 mph - N/A   Mostly Cloudy
3:15 AM 66.2 °F 60.8 °F 83% 29.85 in 10.0 mi ENE 11.5 mph - N/A   Overcast
3:35 AM 66.2 °F 59.0 °F 78% 29.85 in 10.0 mi ENE 11.5 mph - N/A   Mostly Cloudy
3:55 AM 66.2 °F 60.8 °F 83% 29.84 in - ENE 11.5 mph - N/A   Overcast
4:15 AM 66.2 °F 59.0 °F 78% 29.84 in 9.0 mi East 11.5 mph - N/A   Overcast
4:35 AM 66.2 °F 59.0 °F 78% 29.84 in 10.0 mi ENE 12.7 mph - N/A   Overcast
4:55 AM 66.2 °F 60.8 °F 83% 29.84 in 10.0 mi ENE 10.4 mph - N/A   Overcast
5:15 AM 66.2 °F 60.8 °F 83% 29.84 in 10.0 mi East 10.4 mph - N/A   Overcast
5:35 AM 66.2 °F 60.8 °F 83% 29.83 in 9.0 mi East 12.7 mph - N/A   Overcast
5:55 AM 66.2 °F 60.8 °F 83% 29.83 in 9.0 mi East 12.7 mph - N/A   Overcast
6:15 AM 66.2 °F 60.8 °F 83% 29.84 in 9.0 mi East 12.7 mph - N/A   Overcast
6:35 AM 66.2 °F 60.8 °F 83% 29.83 in 9.0 mi ENE 10.4 mph - N/A   Overcast
6:55 AM 68.0 °F 60.8 °F 78% 29.83 in 9.0 mi ENE 11.5 mph - N/A   Overcast
7:15 AM 68.0 °F 60.8 °F 78% 29.82 in 7.0 mi NE 12.7 mph - N/A   Overcast
7:35 AM 68.0 °F 62.6 °F 83% 29.82 in 7.0 mi NE 12.7 mph - N/A   Overcast
7:55 AM 68.0 °F 62.6 °F 83% 29.82 in 7.0 mi ENE 15.0 mph - N/A   Overcast
8:15 AM 68.0 °F 62.6 °F 83% 29.83 in 7.0 mi ENE 13.8 mph - N/A   Overcast
8:35 AM 68.0 °F 62.6 °F 83% 29.83 in 7.0 mi ENE 13.8 mph - N/A   Mostly Cloudy
8:55 AM 68.0 °F 62.6 °F 83% 29.84 in 5.0 mi ENE 13.8 mph - N/A   Haze
9:15 AM 68.0 °F 64.4 °F 88% 29.84 in 5.0 mi ENE 16.1 mph - N/A   Haze
9:35 AM 68.0 °F 64.4 °F 88% 29.83 in 5.0 mi ENE 13.8 mph - N/A   Mostly Cloudy
9:55 AM 68.0 °F 64.4 °F 88% 29.83 in 6.0 mi ENE 13.8 mph - N/A   Haze
10:15 AM 68.0 °F 64.4 °F 88% 29.83 in 6.0 mi East 13.8 mph - N/A   Haze
10:35 AM 68.0 °F 64.4 °F 88% 29.83 in 5.0 mi East 13.8 mph - N/A   Haze
10:55 AM 68.0 °F 64.4 °F 88% 29.83 in 6.0 mi ENE 11.5 mph - N/A   Clear
11:15 AM 68.0 °F 64.4 °F 88% 29.83 in 5.0 mi ENE 11.5 mph - N/A   Clear
11:35 AM 68.0 °F 64.4 °F 88% 29.82 in 5.0 mi ENE 12.7 mph - N/A   Partly Cloudy
11:55 AM 68.0 °F 64.4 °F 88% 29.82 in 5.0 mi ENE 11.5 mph - N/A   Mostly Cloudy
12:15 PM 68.0 °F 64.4 °F 88% 29.80 in 5.0 mi East 12.7 mph - N/A   Mostly Cloudy
12:35 PM 68.0 °F 66.2 °F 94% 29.78 in 4.0 mi East 13.8 mph - N/A   Mostly Cloudy
12:55 PM 69.8 °F 66.2 °F 88% 29.77 in 4.0 mi ENE 13.8 mph - N/A   Overcast
1:15 PM 69.8 °F 66.2 °F 88% 29.76 in 4.0 mi ENE 11.5 mph - N/A   Mostly Cloudy
1:35 PM 69.8 °F 66.2 °F 88% 29.75 in 4.0 mi ENE 11.5 mph - N/A   Mostly Cloudy
1:55 PM 68.0 °F 66.2 °F 94% 29.72 in 3.0 mi ENE 13.8 mph - N/A   Mostly Cloudy
2:15 PM 69.8 °F 66.2 °F 88% 29.72 in 3.0 mi ENE 13.8 mph - N/A   Mostly Cloudy
2:35 PM 69.8 °F 66.2 °F 88% 29.71 in 3.0 mi ENE 13.8 mph - N/A   Mostly Cloudy
2:55 PM 68.0 °F 66.2 °F 94% 29.68 in 2.5 mi ENE 15.0 mph - N/A   Mostly Cloudy
3:15 PM 68.0 °F 66.2 °F 94% 29.69 in 2.5 mi East 13.8 mph - N/A   Scattered Clouds
3:35 PM 69.8 °F 66.2 °F 88% 29.68 in 2.5 mi ENE 13.8 mph - N/A   Mostly Cloudy
3:55 PM 69.8 °F 68.0 °F 94% 29.67 in 2.0 mi ENE 13.8 mph - N/A   Mostly Cloudy
4:15 PM 69.8 °F 68.0 °F 94% 29.68 in 2.0 mi ENE 11.5 mph - N/A   Mostly Cloudy
4:35 PM 69.8 °F 68.0 °F 94% 29.68 in 2.0 mi East 10.4 mph - N/A   Mostly Cloudy
4:55 PM 69.8 °F 68.0 °F 94% 29.67 in 2.0 mi ENE 11.5 mph - N/A   Overcast
5:15 PM 69.8 °F 68.0 °F 94% 29.66 in 2.0 mi ENE 12.7 mph - N/A   Overcast
5:55 PM 69.8 °F 68.0 °F 94% 29.66 in 1.8 mi ENE 12.7 mph - N/A   Mostly Cloudy
6:15 PM 69.8 °F 68.0 °F 94% 29.66 in 1.5 mi ENE 12.7 mph - N/A   Mostly Cloudy
6:35 PM 69.8 °F 68.0 °F 94% 29.66 in 1.2 mi East 10.4 mph - N/A   Scattered Clouds
6:55 PM 69.8 °F 68.0 °F 94% 29.66 in 2.0 mi East 10.4 mph - N/A   Clear
7:15 PM 69.8 °F 68.0 °F 94% 29.67 in 2.0 mi East 10.4 mph - N/A   Scattered Clouds
7:35 PM 68.0 °F 68.0 °F 100% 29.68 in 1.8 mi East 9.2 mph - N/A   Mostly Cloudy
7:55 PM 69.8 °F 68.0 °F 94% 29.68 in 2.0 mi ESE 10.4 mph - N/A   Mostly Cloudy
8:15 PM 69.8 °F 69.8 °F 100% 29.68 in 0.2 mi SE 12.7 mph - N/A Fog Fog
8:35 PM 68.0 °F 68.0 °F 100% 29.67 in 0.2 mi SE 11.5 mph - N/A Fog Fog
8:55 PM 68.0 °F 68.0 °F 100% 29.66 in 0.2 mi ESE 12.7 mph - N/A Fog Fog
9:15 PM 68.0 °F 68.0 °F 100% 29.66 in 0.2 mi SE 13.8 mph - N/A Fog Fog
9:35 PM 68.0 °F 66.2 °F 94% 29.67 in 0.2 mi SSE 10.4 mph - N/A Fog Fog
9:55 PM 66.2 °F 66.2 °F 100% 29.67 in 0.2 mi SE 8.1 mph - N/A Fog Fog
10:15 PM 66.2 °F 66.2 °F 100% 29.66 in 0.2 mi SE 8.1 mph - N/A Fog Fog
10:35 PM 66.2 °F 66.2 °F 100% 29.65 in 0.2 mi SE 12.7 mph - N/A Fog Fog
10:55 PM 66.2 °F 66.2 °F 100% 29.64 in 0.2 mi SE 16.1 mph - N/A Fog Fog
11:15 PM 66.2 °F 66.2 °F 100% 29.64 in 0.2 mi SE 13.8 mph - N/A Fog Fog
11:35 PM 66.2 °F 66.2 °F 100% 29.64 in 0.2 mi SE 11.5 mph - N/A Fog Fog
11:55 PM 66.2 °F 66.2 °F 100% 29.63 in 0.2 mi SE 10.4 mph - N/A Fog Fog